Tracking 17694 objects as of 29-May-2016
HD Live streaming from Space Station
objects crossing your sky now

GLOBALSTAR M006

Track GLOBALSTAR M006 now!
10-day predictions
GLOBALSTAR M006 is classified as:


NORAD ID: 25307
Int'l Code: 1998-023B
Perigee: 1,879.2 km
Apogee: 1,881.4 km
Inclination: 52.0 °
Period: 124.3 minutes
Semi major axis: 8251 km
RCS: 2.7065 m2 (large)
Launch date: April 24, 1998
Source: Globalstar (GLOB)
Launch site: AIR FORCE EASTERN TEST RANGE (AFETR)
Your satellite tracking list
Your tracking list is empty





NASA's NSSDC Master Catalog

Two Line Element Set (TLE):
1 25307U 98023B   16149.55919068 -.00000080  00000-0 -81382-4 0  9999
2 25307  51.9910 172.3964 0001355 252.4419 275.0067 11.58295981833816
Source of the keplerian elements: AFSPC

N2YO: 569